Weather History for Marathon, FL

Change the Weather History Date:

Tuesday, May 6, 2014

  Actual Average Record
Temperature  
Mean Temperature 80 °F 80 °F  
Max Temperature 87 °F 85 °F 90 °F (2007)
Min Temperature 73 °F 74 °F 71 °F (1997)
Degree Days  
Heating Degree Days 0 0  
Month to date heating degree days 0 0  
Since 1 July heating degree days 35 81  
Cooling Degree Days 15 15  
Month to date cooling degree days 102 85  
Year to date cooling degree days 1361 1121  
Growing Degree Days 30 (Base 50)    
Moisture  
Dew Point 66 °F    
Average Humidity 59    
Maximum Humidity 73    
Minimum Humidity 44    
Precipitation  
Precipitation 0.00 in 0.10 in 0.00 in (2014)
Month to date precipitation 0.14 0.56  
Year to date precipitation 5.65 9.15  
Snow  
Snow 0.00 in - - ()
Month to date snowfall 0.0  
Since 1 July snowfall 0.0  
Snow Depth 0.00 in    
Sea Level Pressure  
Sea Level Pressure 30.00 in    
Wind  
Wind Speed 7 mph (East)    
Max Wind Speed 14 mph    
Max Gust Speed 18 mph    
Visibility 10 miles    
Events      
T = Trace of Precipitation, MM = Missing Value Source: NWS Daily Summary

Daily Weather History Graph

Daily Weather History Graph

Search for Another Location

Airport:

Trip Planner

Search our weather history database for the weather conditions in past years. The results will help you decide how hot, cold, wet, or windy it might be!

Date:

Astronomy

May. 06, 2014 Rise Set
Actual Time 6:45 AM EDT 7:56 PM EDT
Civil Twilight 6:21 AM EDT 8:20 PM EDT
Nautical Twilight 5:52 AM EDT 8:49 PM EDT
Astronomical Twilight 5:22 AM EDT 9:19 PM EDT
Moon 12:52 PM EDT (5/6) 1:20 AM EDT (5/6)
Length of Visible Light 13h 59m
Length of Day
13h 11m
Waxing Crescent, 46% of the Moon is Illuminated
May 6
Waxing Crescent
May 6
First Quarter
May 14
Full
May 21
Last Quarter
May 28
New

Hourly Weather History & Observations

Time (EDT) Temp. Heat Index Dew Point Humidity Pressure Visibility Wind Dir Wind Speed Gust Speed Precip Events Conditions
12:53 AM 77.0 °F - 64.0 °F 64% 30.02 in 10.0 mi East 4.6 mph - N/A   Partly Cloudy
1:53 AM 77.0 °F - 64.0 °F 64% 30.01 in 10.0 mi ENE 4.6 mph - N/A   Clear
2:53 AM 75.9 °F - 62.1 °F 62% 29.99 in 10.0 mi ENE 4.6 mph - N/A   Partly Cloudy
7:53 AM 78.1 °F - 64.9 °F 64% 30.01 in 10.0 mi ENE 5.8 mph - N/A   Clear
8:53 AM 81.0 °F 82.7 °F 64.9 °F 58% 30.02 in 10.0 mi Variable 5.8 mph - N/A   Clear
10:53 AM 84.0 °F 84.9 °F 63.0 °F 49% 30.03 in 10.0 mi ENE 5.8 mph - N/A   Clear
11:53 AM 84.0 °F 84.4 °F 61.0 °F 46% 30.03 in 10.0 mi ESE 6.9 mph - N/A   Clear
12:53 PM 84.9 °F 86.1 °F 64.0 °F 49% 30.02 in 10.0 mi Variable 6.9 mph - N/A   Clear
1:53 PM 86.0 °F 88.2 °F 66.0 °F 51% 30.01 in 10.0 mi East 8.1 mph - N/A   Clear
2:53 PM 86.0 °F 88.2 °F 66.0 °F 51% 30.00 in 10.0 mi East 10.4 mph 16.1 mph N/A   Clear
3:53 PM 84.0 °F 86.5 °F 66.9 °F 56% 29.98 in 10.0 mi East 8.1 mph - N/A   Clear
4:53 PM 84.0 °F 87.0 °F 68.0 °F 58% 29.97 in 10.0 mi East 9.2 mph - N/A   Partly Cloudy
5:53 PM 82.9 °F 85.8 °F 68.0 °F 60% 29.97 in 10.0 mi East 10.4 mph - N/A   Clear
6:53 PM 81.0 °F 83.8 °F 68.0 °F 65% 29.97 in 10.0 mi East 8.1 mph - N/A   Clear
7:53 PM 80.1 °F 82.7 °F 68.0 °F 67% 29.98 in 10.0 mi East 10.4 mph - N/A   Clear
8:53 PM 79.0 °F - 66.9 °F 66% 29.99 in 10.0 mi East 10.4 mph - N/A   Clear
9:53 PM 79.0 °F - 66.9 °F 66% 30.00 in 10.0 mi East 10.4 mph - N/A   Scattered Clouds
10:53 PM 79.0 °F - 66.9 °F 66% 30.01 in 10.0 mi East 9.2 mph - N/A   Clear
11:53 PM 79.0 °F - 68.0 °F 69% 30.01 in 10.0 mi East 9.2 mph - N/A   Partly Cloudy